FLOCK 2K-13 (42891 NORAD) Tracking and Keplerian Element Data

This shows tracking and keplerian element data for the satellite.

Feedback or suggestion? Click here.




ElementValue
Catalog42891
NameFLOCK 2K-13
Epoch Orbit15256
Epoch Day94.06791201
Epoch Year2020
RAAN327.2401
Inclination96.9069
Eccentricity0.0008805
Argument of Perigee220.0096
Mean Anonmoly140.0506
Mean Motion15.43512621
Decay Rate6.087E-05
L11 42891U 17042BU 20094.06791201 .00006087 00000-0 13741-3 0 9999
L22 42891 96.9069 327.2401 0008805 220.0096 140.0506 15.43512621152569

Live tracking and technical data element details for FLOCK 2K-13 (NORAD 42891). FLOCK 2K-13 can be tracked NOW for your location showing map with azimuth and elevation plus other details from your city location.

Track the satellite on the map from your city or location and see movement details for azimuth, elevation, latitude, longitude, range, height, and movement on the map or in text.







IsCatalogInMostPopularTable: catalog: 42891, numindb: 440
Update: records affected: 1



GetName: 42891 FLOCK 2K-13

Hit Count: updated at: Thu, 09 Apr 2020 16:02:07 GMT